719  
AXUS43 KGID 231502  
MISGRI  
 
GID CWA HOURLY WEATHER ROUNDUP  
NATIONAL WEATHER SERVICE HASTINGS NE  
1000 AM CDT THU OCT 23 2014  
 
NOTE: "FAIR" INDICATES FEW OR NO CLOUDS BELOW 12,000 FEET WITH NO  
SIGNIFICANT WEATHER AND/OR OBSTRUCTIONS TO VISIBILITY.  
   
..SOUTH CENTRAL NEBRASKA
 
 
 
CITY SKY/WX TMP DP RH WIND PRES REMARKS  
GRAND ISLAND FOG 48 47 96 SW5 30.11R VSB<1/4  
HASTINGS FOG 51 49 92 S3 30.11R VSB<1/4  
KEARNEY CLOUDY 46 46 100 CALM 30.12R VSB<1/4  
ORD FOG 41 41 100 CALM 30.09R VSB 1/4  
YORK CLOUDY 54 54 100 SW5 30.10R FOG  
AURORA FOG 51 51 100 SW6 30.10R VSB<1/4  
LEXINGTON FOG 49 48 97 W5 30.11S VSB<1/4  
HOLDREGE FOG 48 47 97 CALM 30.11R VSB<1/4  
HEBRON FOG 56 55 94 CALM 30.09R VSB<1/4  
   
..NEBRASKA PANHANDLE
 
 
 
CITY SKY/WX TMP DP RH WIND PRES REMARKS  
CHADRON PTSUNNY 43 32 65 W3 30.04S  
ALLIANCE PTSUNNY 42 35 76 W3 30.07F  
SCOTTSBLUFF PTSUNNY 40 34 79 CALM 30.11R  
SIDNEY MOSUNNY 50 38 63 SW6 30.13R  
   
..WESTERN AND NORTH CENTRAL NEBRASKA
 
 
 
CITY SKY/WX TMP DP RH WIND PRES REMARKS  
VALENTINE SUNNY 45 39 79 SW8 30.05R  
AINSWORTH SUNNY 48 45 87 SW8 30.04F  
ONEILL SUNNY 50 50 100 SW6 30.07S  
BROKEN BOW FOG 48 48 100 CALM 30.09R VSB 1/4  
IMPERIAL SUNNY 49 37 63 W6 30.13R  
NORTH PLATTE SUNNY 45 42 89 NW3 30.11R  
MCCOOK FOG 46 45 96 SW7 30.13R VSB<1/4  
   
..EASTERN NEBRASKA
 
 
 
CITY SKY/WX TMP DP RH WIND PRES REMARKS  
NORFOLK SUNNY 50 48 93 W3 30.07R  
SO SIOUX CITY MOSUNNY 52 52 100 CALM 30.07R  
COLUMBUS PTSUNNY 48 46 93 W5 30.10R  
ALBION SUNNY 48 46 94 CALM 30.09R  
OMAHA EPPLEY CLOUDY 59 56 89 N8 30.07R FOG  
OFFUTT AFB CLOUDY 61 61 100 SW6 30.06R  
MILLARD CLOUDY 59 56 90 NW3 30.07R FOG  
LINCOLN FOG 55 54 96 CALM 30.09R VSB 1/2  
NEBRASKA CITY SUNNY 63 62 99 W9 30.07S  
BEATRICE CLOUDY 58 58 100 CALM 30.09R FOG  
FALLS CITY CLOUDY 63 60 90 SW9 30.06S  
   
..NORTHERN KANSAS
 
 
 
CITY SKY/WX TMP DP RH WIND PRES REMARKS  
GOODLAND MOSUNNY 56 50 80 W3 30.16R  
HILL CITY FOG 55 55 100 CALM 30.12R VSB 1/4  
NORTON FOG 54 52 94 CALM 30.11 VSB 0  
PHILLIPSBURG FOG 54 54 100 NW3 30.12R VSB 1/4  
SMITH CENTER FOG 52 52 100 CALM 30.12R VSB 0  
BELOIT CLOUDY 55 55 100 CALM 30.10R VSB 1/4  
HAYS CLOUDY 57 54 88 E3 30.11R VSB<1/4  
RUSSELL MOSUNNY 60 59 96 CALM 30.09R FOG  
CONCORDIA PTSUNNY 63 61 93 SW8 30.09R  
SALINA CLOUDY 64 59 83 S3 30.10R  
TOPEKA CLOUDY 63 61 93 S9 30.09R  
 
CLICK HERE TO GO TO PREVIOUS BULLETINS.

The Nexlab NE Page
The Nexlab KS Page Main Text Page